Kars, Turkey

11:22 PM +03 on April 23, 2017 (GMT +0300)
Kars

Weather History for LTCF - February, 2013

Change the Weather History Date:

Monday, February 11, 2013

  Actual Average Record
Temperature  
Mean Temperature 18 °F -  
Max Temperature 32 °F 30 °F - ()
Min Temperature 5 °F 11 °F - ()
Degree Days  
Heating Degree Days 46    
Moisture  
Dew Point 16 °F    
Average Humidity 94    
Maximum Humidity 100    
Minimum Humidity 74    
Precipitation  
Precipitation 0.00 in 0.03 in - ()
Sea Level Pressure  
Sea Level Pressure 29.99 in    
Wind  
Wind Speed 1 mph ()    
Max Wind Speed 8 mph    
Max Gust Speed -    
Visibility 2.4 miles    
Events Fog    
T = Trace of Precipitation, MM = Missing Value Source: Averaged Metar Reports

Daily Weather History Graph

Daily Weather History Graph

Search for Another Location

Airport or City:

Trip Planner

Search our weather history database for the weather conditions in past years. The results will help you decide how hot, cold, wet, or windy it might be!

Date:

Astronomy

Feb. 11, 2013 Rise Set
Actual Time 6:06 AM EET 4:37 PM EET
Civil Twilight 5:38 AM EET 5:05 PM EET
Nautical Twilight 5:06 AM EET 5:38 PM EET
Astronomical Twilight 4:34 AM EET 6:09 PM EET
Moon 6:17 AM EET (2/11) 6:11 PM EET (2/11)
Length of Visible Light 11h 27m
Length of Day
10h 31m
New Moon, 2% of the Moon is Illuminated
Feb 11
New Moon
Feb 17
First Quarter
Feb 25
Full
Mar 4
Last Quarter
Mar 11
New

Hourly Weather History & Observations

Time (EET) Temp. Windchill Dew Point Humidity Pressure Visibility Wind Dir Wind Speed Gust Speed Precip Events Conditions
12:50 AM 10.4 °F - 8.6 °F 92% 30.06 in 3.7 mi Calm Calm - N/A   Partly Cloudy
1:50 AM 8.6 °F - 6.8 °F 92% 30.06 in 3.7 mi SSE 1.2 mph - N/A   Partly Cloudy
2:00 AM 9 °F - 9 °F 97%  in 4 mi SSE 1.2 mph - -   Mist
2:50 AM 8.6 °F - 6.8 °F 92% 30.04 in 3.7 mi WNW 1.2 mph - N/A   Partly Cloudy
3:50 AM 6.8 °F - 5.0 °F 92% 30.04 in 3.7 mi Calm Calm - N/A   Partly Cloudy
4:50 AM 12.2 °F 6.1 °F 10.4 °F 92% 30.04 in 3.7 mi NW 3.5 mph - N/A   Partly Cloudy
5:50 AM 10.4 °F - 8.6 °F 92% 30.04 in 3.7 mi Calm Calm - N/A   Partly Cloudy
6:50 AM 8.6 °F - 6.8 °F 92% 30.04 in 3.7 mi Calm Calm - N/A   Scattered Clouds
7:50 AM 12.2 °F - 12.2 °F 100% 30.04 in 3.7 mi Calm Calm - N/A   Scattered Clouds
8:00 AM 13 °F - 13 °F 97%  in 4 mi Calm Calm - -   Mist
8:50 AM 14.0 °F - 12.2 °F 93% 30.01 in 3.7 mi Calm Calm - N/A   Unknown
9:50 AM 17.6 °F - 17.6 °F 100% 30.01 in 3.7 mi Calm Calm - N/A   Mostly Cloudy
10:50 AM 17.6 °F - 15.8 °F 93% 29.98 in 3.7 mi Calm Calm - N/A   Mostly Cloudy
11:50 AM 23.0 °F - 21.2 °F 93% 29.98 in 3.7 mi Calm Calm - N/A   Scattered Clouds
12:50 PM 32.0 °F - 24.8 °F 75% 29.95 in 4.3 mi Calm Calm - N/A   Scattered Clouds
1:50 PM 24.8 °F 19.1 °F 19.4 °F 80% 29.95 in 3.1 mi NE 4.6 mph - N/A   Mostly Cloudy
2:00 PM 24 °F - 19 °F 74%  in 3 mi NE 4.6 mph - -   Mist
2:50 PM 23.0 °F 14.7 °F 19.4 °F 86% 29.95 in 1.9 mi NE 6.9 mph - N/A   Mostly Cloudy
3:50 PM 21.2 °F 11.7 °F 17.6 °F 86% 29.95 in 2.2 mi NE 8.1 mph - N/A   Mostly Cloudy
4:50 PM 19.4 °F - 19.4 °F 100% 29.95 in 0.5 mi Calm Calm - N/A Fog Light Freezing Fog
5:20 PM 19.4 °F 12.8 °F 19.4 °F 100% 29.95 in 0.2 mi SE 4.6 mph - N/A Fog Light Freezing Fog
5:50 PM 19.4 °F - 19.4 °F 100% 29.95 in 0.2 mi SE 2.3 mph - N/A Fog Light Freezing Fog
6:50 PM 21.2 °F 14.9 °F 21.2 °F 100% 29.95 in 0.2 mi East 4.6 mph - N/A Fog Light Freezing Fog
7:50 PM 21.2 °F - 21.2 °F 100% 29.95 in 0.2 mi Calm Calm - N/A Fog Light Freezing Fog
8:00 PM 21 °F - 20 °F 96%  in 0 mi Calm Calm - - Fog Heavy Fog
8:50 PM 21.2 °F - 21.2 °F 100% 29.95 in 0.2 mi SE 2.3 mph - N/A Fog Light Freezing Fog
9:50 PM 21.2 °F - 21.2 °F 100% 29.95 in 0.4 mi Variable 1.2 mph - N/A Fog Light Freezing Fog
10:50 PM 21.2 °F - 21.2 °F 100% 29.92 in 0.2 mi Calm Calm - N/A Fog Light Freezing Fog
11:50 PM 21.2 °F - 21.2 °F 100% 29.92 in 0.1 mi Calm Calm - N/A Fog Light Freezing Fog